FW8612 Weather Reports


time (UTC)temp
C
wind
direction
speed
KPH
gust
KPH
rain 1hr
cm
rain 24hr
cm
rain mn
cm
humidity
%
barometer
mb
20260505130110 11 0 0.0 0.0 0.00 0.00 0.00 82 1017.3
20260505124601 11 0 0.0 0.0 0.00 0.00 0.00 83 1017.3
20260505123055 9 0 0.0 3.2 0.00 0.00 0.00 87 1017.4
20260505121556 8 0 0.0 0.0 0.00 0.00 0.00 90 1017.2
20260505120108 7 0 0.0 0.0 0.00 0.00 0.00 90 1017.0
20260505114550 6 0 0.0 0.0 0.00 0.00 0.00 90 1017.1
20260505113055 6 0 0.0 0.0 0.00 0.00 0.00 91 1017.0
20260505111552 6 0 0.0 0.0 0.00 0.00 0.00 91 1016.8
20260505110106 5 0 0.0 0.0 0.00 0.00 0.00 91 1016.6
20260505101558 6 0 0.0 0.0 0.00 0.00 0.00 92 1016.7
20260505100052 6 0 0.0 0.0 0.00 0.00 0.00 91 1016.8
20260505094556 6 0 0.0 0.0 0.00 0.00 0.00 91 1016.4
20260505093108 6 0 0.0 0.0 0.00 0.00 0.00 90 1016.4
20260505091555 6 0 0.0 0.0 0.00 0.00 0.00 89 1016.5
20260505090051 6 0 0.0 0.0 0.00 0.00 0.00 89 1016.5
20260505084552 6 0 0.0 0.0 0.00 0.00 0.00 90 1016.4
20260505083057 6 0 0.0 0.0 0.00 0.00 0.00 90 1016.4
20260505081608 7 0 0.0 0.0 0.00 0.00 0.00 89 1016.3
20260505080104 7 0 0.0 0.0 0.00 0.00 0.00 88 1016.1
20260505074554 7 0 0.0 0.0 0.00 0.00 0.00 88 1016.3
20260505073053 7 0 0.0 0.0 0.00 0.00 0.00 87 1016.1
20260505071555 8 0 0.0 0.0 0.00 0.00 0.00 86 1016.3
20260505070101 8 0 0.0 0.0 0.00 0.00 0.00 85 1016.3
20260505064556 8 0 0.0 0.0 0.00 0.00 0.00 85 1016.3
20260505063053 8 0 0.0 0.0 0.00 0.00 0.00 84 1016.4
20260505061558 9 0 0.0 0.0 0.00 0.00 0.00 83 1016.5
20260505060058 9 0 0.0 0.0 0.00 0.00 0.00 83 1016.6
20260505054558 9 359 0.0 0.0 0.00 0.00 0.00 82 1016.5
20260505053102 10 0 0.0 0.0 0.00 0.00 0.00 82 1016.7
20260505051552 10 0 0.0 0.0 0.00 0.00 0.00 80 1016.6
20260505041556 12 0 0.0 0.0 0.00 0.00 0.00 71 1016.5
20260505040055 13 0 0.0 0.0 0.00 0.00 0.00 67 1016.5
20260505034552 13 0 0.0 0.0 0.00 0.00 0.00 66 1016.5
20260505033054 13 0 0.0 0.0 0.00 0.00 0.00 65 1016.6
20260505031552 14 0 0.0 0.0 0.00 0.00 0.00 64 1016.8
20260505030053 15 0 0.0 0.0 0.00 0.00 0.00 61 1016.8
20260505024553 15 0 0.0 0.0 0.00 0.00 0.00 59 1016.6
20260505023058 15 0 0.0 0.0 0.00 0.00 0.00 58 1016.6
20260505021554 16 0 0.0 0.0 0.00 0.00 0.00 57 1016.4
20260505020056 16 0 0.0 0.0 0.00 0.00 0.00 56 1016.3
20260505014552 16 0 0.0 0.0 0.00 0.00 0.00 55 1016.1
20260505013055 16 0 0.0 0.0 0.00 0.00 0.00 54 1015.9
20260505011555 17 0 0.0 0.0 0.00 0.00 0.00 54 1015.7
20260505010103 17 0 0.0 4.8 0.00 0.00 0.00 53 1015.7
20260505004555 17 142 0.0 1.6 0.00 0.00 0.00 52 1015.6
20260505003059 18 0 0.0 1.6 0.00 0.00 0.00 51 1015.4
20260505001553 18 172 0.0 1.6 0.00 0.00 0.00 51 1015.2
20260505000111 19 0 1.6 3.2 0.00 0.00 0.00 49 1015.3
20260504234555 19 161 0.0 3.2 0.00 0.00 0.00 48 1015.1
20260504233054 20 0 0.0 6.4 0.00 0.00 0.00 47 1015.0
20260504231554 20 236 0.0 6.4 0.00 0.00 0.00 45 1015.0
20260504230051 21 0 0.0 4.8 0.00 0.00 0.00 44 1014.9
20260504224559 21 0 1.6 6.4 0.00 0.00 0.00 42 1014.7
20260504223057 22 0 1.6 6.4 0.00 0.00 0.00 41 1014.8
20260504221556 22 201 1.6 6.4 0.00 0.00 0.00 40 1014.8
20260504220115 22 182 1.6 8.0 0.00 0.00 0.00 39 1014.8
20260504214559 22 0 1.6 6.4 0.00 0.00 0.00 37 1014.7
20260504213101 22 193 1.6 8.0 0.00 0.00 0.00 35 1014.9
20260504211558 22 207 0.0 6.4 0.00 0.00 0.00 34 1015.0
20260504210101 22 115 3.2 8.0 0.00 0.00 0.00 33 1014.9
20260504204555 21 252 0.0 4.8 0.00 0.00 0.00 37 1015.0
20260504203054 21 47 0.0 6.4 0.00 0.00 0.00 36 1015.1
20260504201554 21 89 1.6 4.8 0.00 0.00 0.00 34 1015.2
20260504200059 21 0 0.0 0.0 0.00 0.00 0.00 38 1015.4
20260504194553 21 63 0.0 1.6 0.00 0.00 0.00 34 1015.6
20260504193052 22 0 0.0 1.6 0.00 0.00 0.00 35 1015.8
20260504191557 22 0 0.0 0.0 0.00 0.00 0.00 36 1016.0
20260504190107 22 356 0.0 6.4 0.00 0.00 0.00 33 1016.0
20260504184611 22 127 1.6 6.4 0.00 0.00 0.00 35 1016.1
20260504183104 22 0 0.0 8.0 0.00 0.00 0.00 36 1016.3
20260504181556 22 0 0.0 3.2 0.00 0.00 0.00 38 1016.4
20260504180054 21 191 1.6 6.4 0.00 0.00 0.00 40 1016.5
20260504174552 21 104 3.2 6.4 0.00 0.00 0.00 39 1016.6
20260504173106 21 283 0.0 3.2 0.00 0.00 0.00 39 1016.9
20260504171556 21 0 0.0 1.6 0.00 0.00 0.00 39 1017.0
20260504170105 20 0 0.0 0.0 0.00 0.00 0.00 42 1017.2